Vorticity
nan nan nan nan nan nan nan nan nan nan nan nan nan nan nan nan nan nan nan nan nan nan nan nan nan nan nan nan nan nan nan nan nan nan nan nan nan nan nan nan nan nan nan nan nan nan nan nan nan
nan 9 6 7 9 8 6 8 9 5 9 7 3 6 3 6 14 14 10 9 4 5 6 9 7 7 6 5 5 5 6 6 7 7 7 6 6 6 5 6 5 5 6 6 5 5 6 6 nan
nan 6 6 7 11 9 10 8 8 12 7 -0 -1 6 9 9 13 5 9 10 5 6 4 9 8 5 5 7 6 6 6 7 7 6 7 7 6 6 6 4 5 6 6 5 5 4 5 5 nan
nan 9 7 9 10 8 10 9 6 7 4 3 4 9 10 9 9 11 8 4 5 5 8 6 6 5 5 7 7 7 7 5 5 7 7 7 6 5 6 6 5 5 5 5 5 5 4 4 nan
nan 6 10 8 8 8 6 4 4 6 10 8 4 8 7 7 10 12 6 5 6 5 7 7 6 7 8 6 6 6 6 7 7 6 6 6 5 6 5 5 5 5 5 5 5 5 4 4 nan
nan 8 11 6 6 5 5 3 8 9 9 8 11 6 3 11 12 5 5 5 6 6 5 5 7 6 6 6 7 6 5 6 7 8 6 6 5 5 6 5 4 4 4 4 4 4 4 4 nan
nan 9 8 8 3 7 5 6 10 10 9 11 7 1 7 11 7 6 5 6 5 5 6 5 7 4 5 6 6 6 6 6 5 6 6 5 5 6 4 4 4 4 4 4 4 4 4 4 nan
nan 9 7 6 3 9 7 7 6 5 9 11 5 6 12 9 6 5 6 7 5 5 6 4 8 8 6 5 5 6 6 5 5 5 5 5 4 5 6 8 7 3 4 4 5 5 6 6 nan
nan 10 7 6 8 9 7 4 4 10 8 0 6 16 16 8 5 4 5 5 4 6 6 6 4 7 7 6 8 5 5 4 5 5 6 4 6 7 2 5 6 5 5 5 6 6 6 8 nan
nan 10 5 7 12 11 8 5 8 9 2 6 9 16 10 6 5 5 4 5 6 6 4 6 7 6 4 5 6 6 6 6 6 6 5 5 7 4 3 7 4 5 8 7 8 8 9 10 nan
nan 8 6 7 12 12 8 6 7 8 7 11 15 8 4 4 5 5 5 7 7 5 6 7 6 7 5 6 2 6 6 7 8 7 5 8 6 7 6 5 7 7 6 11 9 7 8 8 nan
nan 3 8 9 10 10 8 6 7 -1 9 19 16 8 4 4 5 5 7 8 8 7 6 6 6 5 5 6 7 6 6 6 8 9 7 5 6 5 6 7 6 7 5 8 8 5 8 8 nan
nan 9 11 7 6 9 8 3 5 8 8 17 12 7 4 4 5 6 7 9 8 7 8 7 6 5 7 5 6 6 7 8 8 8 7 5 6 7 7 5 6 7 6 5 8 7 5 9 nan
nan 12 11 9 6 5 4 5 4 12 12 11 7 6 5 5 5 5 6 7 8 8 8 8 5 6 6 5 6 7 9 8 8 8 8 6 5 6 5 7 7 6 6 6 8 7 7 6 nan
nan 9 1 8 8 8 7 8 10 12 10 6 6 6 7 6 5 5 7 6 7 7 9 7 7 7 7 7 7 7 8 6 7 7 7 8 8 5 6 7 7 7 7 9 8 8 9 8 nan
nan 7 3 4 7 9 5 7 17 10 8 6 6 6 7 7 5 6 5 6 6 6 9 8 9 8 6 6 6 7 6 6 8 8 8 9 6 7 8 7 7 8 9 8 7 8 8 9 nan
nan 10 10 1 7 6 5 1 8 12 7 6 8 7 7 7 6 6 5 6 6 8 8 8 9 8 7 6 5 7 6 6 7 7 7 8 7 7 6 6 8 8 8 6 8 9 9 8 nan
nan 10 3 9 12 4 4 2 7 15 7 8 7 7 7 8 8 6 6 6 6 7 7 7 7 8 7 6 7 7 6 8 7 7 8 7 8 8 7 6 7 7 8 9 8 8 10 9 nan
nan 7 8 13 8 8 8 6 16 12 8 8 8 7 7 8 8 8 8 6 6 7 7 7 7 7 6 7 7 6 7 7 7 7 7 7 9 8 7 7 8 7 7 9 10 9 9 7 nan
nan 4 9 10 5 8 8 13 20 15 13 9 8 7 7 7 8 9 7 7 7 6 6 6 7 7 5 4 7 8 7 7 8 9 9 9 8 7 7 6 7 12 11 7 5 8 10 7 nan
nan 6 6 7 13 11 12 17 15 16 13 12 9 10 9 8 8 8 7 7 7 7 8 7 8 7 6 5 6 5 5 9 10 8 12 11 11 12 11 12 14 13 7 4 6 5 8 6 nan
nan 6 5 7 8 10 18 11 12 10 18 17 14 10 9 8 6 8 8 8 9 8 7 8 8 7 8 7 4 6 5 7 6 7 10 9 10 15 17 16 13 6 5 6 11 7 4 9 nan
nan 5 5 10 12 12 13 7 9 9 8 17 16 15 12 11 10 7 6 7 10 12 10 10 9 9 8 7 6 6 6 6 10 12 9 6 7 9 11 11 7 5 9 8 7 9 11 12 nan
nan 8 10 9 14 11 3 11 1 5 11 11 10 14 20 17 11 11 10 8 7 8 13 13 8 11 12 11 8 6 11 8 10 10 8 8 7 5 6 9 8 6 8 12 13 10 9 9 nan
nan 7 8 11 8 6 8 7 6 7 12 10 11 12 18 18 14 11 11 12 13 9 9 11 11 9 10 14 14 11 15 16 11 10 9 9 6 7 7 8 9 7 5 10 11 11 11 9 nan
nan 8 13 4 1 9 11 7 4 9 11 11 11 13 14 16 16 15 14 16 12 11 11 8 10 10 9 9 15 13 12 13 10 9 7 6 9 10 9 8 7 9 8 9 10 10 10 13 nan
nan 6 4 14 11 5 1 6 11 7 -4 3 11 13 11 12 13 14 12 9 14 17 9 10 14 9 8 10 11 10 5 8 7 5 6 8 8 8 8 7 9 11 12 9 9 12 13 10 nan
nan 10 14 8 5 6 4 9 10 -1 2 4 9 16 16 10 10 11 9 9 10 10 13 12 14 12 11 9 4 5 6 7 7 8 8 7 8 8 10 9 9 9 11 10 10 11 10 8 nan
nan 3 2 3 7 7 10 4 13 11 7 4 8 16 18 12 9 8 9 9 12 12 15 17 11 12 13 7 7 10 8 2 2 6 11 11 10 9 10 10 9 8 8 9 8 8 9 8 nan
nan nan nan nan nan nan nan nan nan nan nan nan nan nan nan nan nan nan nan nan nan nan nan nan nan nan nan nan nan nan nan nan nan nan nan nan nan nan nan nan nan nan nan nan nan nan nan nan nan
CAPE
128 707 1489 2292 1088 323 310 258 262 140 111 240 163 573 915 855 624 810 686 640 805 1186 1645 1704 2014 2079 1946 2115 2111 2169 1768 1592 1594 1737 1863 1738 1714 1766 1705 1672 1563 1537 1727 1737 1770 1634 1548 1593 1789
719 1331 1382 1593 438 263 345 321 341 275 357 264 510 683 828 1027 843 789 702 661 1005 1239 1467 1502 2286 2429 1996 2089 2086 2015 1994 1927 1822 1949 2016 1910 1749 1928 1845 1598 1850 1684 1750 1557 1470 1218 976 870 1241
1255 1323 1779 704 244 246 329 289 372 302 257 277 566 628 756 957 801 608 790 617 1055 1030 1154 1856 2162 1981 1734 2035 2075 1973 1788 1829 1829 1783 1779 1789 1946 2017 1854 1607 1558 1300 1504 1519 1480 1484 1270 1181 1005
897 1536 1119 582 177 190 220 245 230 323 276 327 441 492 681 792 685 715 563 616 884 993 1116 1895 2045 1825 1668 1594 1902 1918 1691 1779 1763 1833 1829 2024 1659 1510 1772 1582 1858 1710 1643 1484 1404 1357 1169 1123 1230
375 1079 579 283 182 173 181 186 238 285 263 288 217 194 609 764 734 503 547 762 883 871 1130 1431 2131 1971 1521 1741 1678 1745 1778 1806 1629 1814 1656 1692 1200 1498 1686 1855 1832 1502 1341 1374 1393 1351 1286 1340 1407
1003 1105 393 254 189 165 160 241 220 162 169 148 91 169 513 565 625 530 663 730 720 757 965 1254 1955 1739 1867 1841 1748 1412 1751 1613 1696 1617 1820 1201 1562 1958 1784 1593 1432 1407 1331 1374 1469 1417 1371 1396 1507
1016 632 428 194 210 257 349 296 225 126 108 115 117 234 483 353 537 516 616 665 606 617 773 1151 1026 1464 1606 1730 1697 1587 1776 1645 1615 1666 1504 1386 1878 1719 1567 1536 1506 1410 1296 1278 1350 1423 1443 1444 1413
1371 868 590 401 290 363 297 286 163 144 95 84 131 277 355 369 339 512 603 625 579 504 560 578 945 1252 1211 1295 1679 1505 1621 1710 1480 1363 1546 1640 1556 1511 1563 1561 1508 1203 1147 1257 1397 1463 1630 1735 1599
1000 737 483 486 506 486 259 356 406 157 50 62 176 124 190 241 219 304 409 442 540 403 359 359 680 796 831 830 1326 1778 1823 1386 1064 1013 1139 1234 742 912 1310 1234 1183 1233 1261 1306 1399 1650 1432 907 1925
1239 628 489 500 546 542 323 399 377 68 127 263 223 130 250 294 211 158 160 240 237 203 179 211 239 365 958 540 1055 965 1277 732 99 327 701 704 519 713 748 754 751 991 1173 1557 1915 1956 1303 1335 1419
608 580 611 546 430 421 403 410 387 175 462 312 104 263 357 223 79 0 0 0 4 57 64 61 79 224 337 548 575 542 817 516 165 718 1021 582 508 747 403 520 578 980 479 485 1208 557 758 1047 1517
577 322 341 364 196 352 462 479 375 315 454 271 15 282 354 171 43 46 0 14 0 0 0 0 57 161 242 380 472 337 633 294 75 296 999 698 764 616 646 514 696 1104 168 341 472 604 1249 1719 2191
438 380 344 319 206 180 340 464 349 258 331 112 17 246 164 87 151 68 0 0 0 0 0 0 76 283 288 400 311 474 331 0 0 176 600 407 277 429 534 673 864 862 615 617 534 407 1185 1611 1979
362 398 439 428 462 296 194 333 214 309 290 83 103 271 82 143 279 141 0 0 0 0 0 0 4 350 323 345 392 303 17 0 36 82 189 656 647 887 842 1169 910 689 636 600 573 793 1489 1622 1709
340 452 293 410 539 549 232 248 318 476 384 303 215 189 68 233 325 387 23 0 0 0 0 0 0 30 283 387 351 127 0 96 307 494 1047 1413 1746 1858 1934 1627 1406 824 799 1022 1332 1927 1845 1814 1075
463 389 276 358 406 320 385 369 378 526 249 495 344 139 91 151 287 432 302 31 40 10 0 0 0 0 0 31 23 8 372 546 615 737 1075 1713 2079 2271 2371 1442 921 471 558 1012 1457 1768 1731 1394 1361
253 505 338 351 341 358 408 463 392 468 396 534 521 294 115 120 263 437 467 318 86 219 23 0 0 0 0 0 0 333 789 741 606 735 1249 1769 1397 1283 1898 1141 1115 1564 688 1421 1647 1577 1985 1387 1444
370 285 224 295 352 314 396 420 349 488 463 521 583 500 212 202 151 352 461 477 311 182 389 30 18 0 0 0 144 485 534 843 923 833 1219 1497 1834 1873 1412 1063 1583 2052 1358 1159 1866 2476 2203 1878 1580
107 117 171 247 187 282 312 336 291 406 493 504 566 550 515 319 265 256 546 551 513 394 323 292 58 144 75 59 261 492 521 678 579 680 1070 1439 2101 2309 2033 1250 1698 2319 2135 2171 1549 1050 610 492 716
150 196 306 188 204 274 256 295 317 489 590 500 534 544 566 416 250 173 487 629 792 772 514 694 151 241 410 209 416 275 354 311 617 1075 1405 1975 2154 2415 2523 2408 2251 2216 2829 1377 1148 631 247 215 591
256 415 344 369 348 416 533 449 387 410 563 611 553 560 640 614 445 345 376 569 647 842 936 720 1165 473 689 470 370 568 920 1282 1252 1459 1751 1941 2139 2141 2121 2361 2484 1958 1673 1220 975 315 204 167 181
201 466 331 126 159 255 560 278 325 403 549 684 711 702 692 758 684 603 565 664 712 713 821 1071 1640 1917 1356 1517 965 2023 734 596 292 843 2356 2547 2200 2353 2427 2020 1793 1540 939 716 382 428 126 542 562
520 416 486 255 209 369 297 360 137 616 12 290 721 766 812 828 862 772 694 727 734 716 662 774 1231 1698 2359 1788 1679 961 1086 588 797 1723 1679 926 1040 802 779 934 1290 453 514 410 306 286 342 1170 698
585 632 396 216 51 68 15 40 61 0 64 104 261 505 893 1001 982 951 940 917 822 550 422 516 1300 1737 1950 2257 1700 2453 2506 1436 2341 1529 877 957 849 644 437 413 448 78 221 325 503 372 132 0 115
711 373 84 10 13 1 0 0 3 0 66 269 446 659 834 1127 1295 1312 1258 1214 982 840 572 552 766 1212 1423 1331 1777 1812 2106 1949 1567 1217 727 644 449 296 167 102 2 2 2 11 44 2 0 11 55
360 353 36 11 1 0 39 0 1 1 196 509 771 933 1193 1296 1264 1461 1361 1464 1241 923 761 739 945 1207 982 642 1413 1913 927 204 472 209 182 287 174 80 12 5 3 3 2 2 2 10 55 10 0
459 175 59 0 0 0 0 0 0 3 0 31 327 760 1038 1364 1348 1469 1475 1332 1413 964 936 1063 1055 1278 1133 1439 1553 828 508 75 17 1 0 46 15 7 4 1 1 2 6 0 0 0 0 0 0
196 69 6 5 0 0 0 0 0 0 0 0 0 115 819 1388 1357 1407 1366 1313 1295 1440 1415 962 1066 947 1271 1194 422 22 7 0 0 16 44 79 86 9 3 3 0 0 0 0 0 0 0 0 0
9 2 0 0 0 0 0 0 0 0 0 0 0 90 691 1275 1281 1212 1235 1221 1222 1038 1394 1707 1524 1516 1852 640 36 1 0 0 28 73 81 99 37 14 2 0 0 0 0 0 0 0 0 0 0
0 0 0 0 0 0 0 0 0 0 0 0 0 264 1105 1454 1079 998 1088 1328 1307 777 1032 1388 1630 1751 1278 978 241 277 153 124 173 353 154 183 87 3 0 0 0 0 0 0 0 0 0 0 0